Location: Niverville
(49.6028°N, 97.0419°W)
Time: 00:32:19
(UTC-05:00)

Amateur Radio Satellites - All Passes

Search period start: 18 April 2014 00:02
Search period end: 19 April 2014 00:02
Location: Niverville, 49.6028°N, 97.0419°W

Satellite Date Start Highest point End Downlink Frequencies (MHz)
Time Altitude Azimuth
UOSAT-12 18 Apr 00:17:41 00:20:19 15° 12° (NNE) 00:22:57 437.025 FM, 437.400 FM
MaSat-1 18 Apr 00:23:34 00:25:06 14° 312° (NW) 00:26:34 437.345 MHz
Sapphire 18 Apr 00:28:46 00:29:35 10° 101° (E) 00:30:24 437.095 MHz 1200 baud AX-25 AFSK
SO-50 18 Apr 01:04:51 01:09:30 88° 231° (SW) 01:14:12 436.795 FM
PCSat 18 Apr 01:09:41 01:14:02 25° 110° (ESE) 01:18:24 145.825 MHz
OPAL 18 Apr 01:17:41 01:20:30 15° 50° (NE) 01:23:20 ?
UOSAT-12 18 Apr 01:57:36 02:01:53 32° 36° (NE) 02:06:08 437.025 FM, 437.400 FM
Sapphire 18 Apr 02:06:35 02:11:55 62° 120° (ESE) 02:17:17 437.095 MHz 1200 baud AX-25 AFSK
AO-27 18 Apr 02:08:34 02:09:58 11° 84° (E) 02:11:21 436.795 MHz FM
ITAMSAT 1 18 Apr 02:18:44 02:21:19 14° 86° (E) 02:23:53 435.822 SSB
Oscar 10/S400 18 Apr 02:20:35 02:31:45 14° 119° (ESE) 02:49:39 145.825 - 145.975 CW/USB, Beacon 145.810 USB
Oscar 19 18 Apr 02:26:06 02:30:36 29° 94° (E) 02:35:04 437.125 CW, 437.150 USB
Oscar 16 18 Apr 02:33:55 02:38:41 35° 96° (E) 02:43:25 437.025 USB, Beacon 2401.1428
AO-Echo 18 Apr 02:42:33 02:45:39 17° 88° (E) 02:48:43 ?
SO-50 18 Apr 02:46:53 02:49:26 15° 249° (WSW) 02:51:59 436.795 FM
KITSAT 1 18 Apr 02:49:25 02:55:17 23° 103° (ESE) 03:01:09 435.175 FM
PCSat 18 Apr 02:51:40 02:57:03 64° 310° (NW) 03:02:28 145.825 MHz
OPAL 18 Apr 02:53:33 02:58:35 77° 70° (ENE) 03:03:43 ?
Uribyol 2 18 Apr 03:06:04 03:10:50 36° 96° (E) 03:15:34 436.500 FM
Gurwin Techsat 1B 18 Apr 03:28:59 03:32:51 20° 90° (E) 03:36:42 435.225 FM
UOSAT-12 18 Apr 03:37:40 03:42:18 55° 236° (WSW) 03:46:53 437.025 FM, 437.400 FM
AO-27 18 Apr 03:45:13 03:50:25 73° 104° (ESE) 03:55:35 436.795 MHz FM
Sapphire 18 Apr 03:50:54 03:55:44 32° 321° (NW) 04:00:35 437.095 MHz 1200 baud AX-25 AFSK
ITAMSAT 1 18 Apr 03:56:23 04:01:36 87° 105° (ESE) 04:06:46 435.822 SSB
AO-7 18 Apr 04:01:39 04:03:29 11° 80° (E) 04:05:19 29.400 - 29.500 MHz
Oscar 19 18 Apr 04:05:10 04:10:09 47° 293° (WNW) 04:15:06 437.125 CW, 437.150 USB
Oscar 16 18 Apr 04:13:17 04:18:05 39° 295° (WNW) 04:22:52 437.025 USB, Beacon 2401.1428
TMSAT-1 18 Apr 04:17:37 04:22:30 36° 96° (E) 04:27:22 436.925 FM
AO-Echo 18 Apr 04:20:10 04:25:00 69° 288° (WNW) 04:29:42 ?
OPAL 18 Apr 04:34:50 04:38:05 17° 269° (W) 04:41:22 ?
PCSat 18 Apr 04:37:36 04:41:32 20° 333° (NNW) 04:45:30 145.825 MHz
Uosat F 18 Apr 04:37:38 04:41:25 21° 91° (E) 04:45:11 435.120 FM
KITSAT 1 18 Apr 04:41:27 04:49:35 84° 125° (SE) 04:57:45 435.175 FM
Uribyol 2 18 Apr 04:45:36 04:50:20 38° 295° (WNW) 04:55:04 436.500 FM
JAS-1B 18 Apr 05:05:03 05:10:30 43° 98° (E) 05:15:56 435.800 - 435.900 CW/SSB
Gurwin Techsat 1B 18 Apr 05:08:03 05:13:21 68° 289° (WNW) 05:18:36 435.225 FM
AO-27 18 Apr 05:25:41 05:29:26 21° 303° (WNW) 05:33:11 436.795 MHz FM
STRAND 1 18 Apr 05:31:23 05:34:29 16° 54° (NE) 05:37:34 ?
ITAMSAT 1 18 Apr 05:37:06 05:40:27 18° 305° (NW) 05:43:47 435.822 SSB
Sapphire 18 Apr 05:38:09 05:40:55 14° 346° (NNW) 05:43:42 437.095 MHz 1200 baud AX-25 AFSK
AO-7 18 Apr 05:50:12 05:58:20 53° 102° (ESE) 06:06:25 29.400 - 29.500 MHz
RS-15 18 Apr 05:52:14 05:56:59 14° 94° (E) 06:01:40 29.354 - 29.394 USB, Beacon 29.352 USB
TMSAT-1 18 Apr 05:57:36 06:02:28 38° 295° (WNW) 06:07:18 436.925 FM
AO-Echo 18 Apr 06:01:05 06:02:53 12° 308° (NW) 06:04:40 ?
Uosat F 18 Apr 06:15:41 06:20:37 60° 290° (WNW) 06:25:31 435.120 FM
PCSat 18 Apr 06:25:01 06:27:11 12° 359° (N) 06:29:21 145.825 MHz
KITSAT 1 18 Apr 06:38:26 06:45:53 38° 329° (NNW) 06:53:21 435.175 FM
Hamsat 18 Apr 06:48:23 06:51:30 19° 91° (E) 06:54:37 145.90 MHz
Gurwin Techsat 1B 18 Apr 06:49:52 06:52:24 14° 309° (NW) 06:54:55 435.225 FM
JAS-1B 18 Apr 06:56:04 07:01:10 33° 299° (WNW) 07:06:11 435.800 - 435.900 CW/SSB
MaSat-1 18 Apr 07:03:04 07:05:30 28° 53° (NE) 07:08:16 437.345 MHz
STRAND 1 18 Apr 07:07:51 07:12:59 87° 74° (ENE) 07:18:08 ?
Sapphire 18 Apr 07:24:03 07:26:47 14° 13° (NNE) 07:29:30 437.095 MHz 1200 baud AX-25 AFSK
SO-67 18 Apr 07:39:53 07:40:44 11° 88° (E) 07:41:35 435.3500 MHz FM
AO-7 18 Apr 07:43:17 07:51:02 46° 303° (WNW) 07:58:48 29.400 - 29.500 MHz
RS-15 18 Apr 07:55:51 08:06:43 58° 117° (ESE) 08:17:17 29.354 - 29.394 USB, Beacon 29.352 USB
Uosat F 18 Apr 07:56:55 07:58:26 11° 310° (NW) 07:59:57 435.120 FM
AO-40 18 Apr 07:59:31 09:40:29 20° 210° (SSW) 12:50:09 Beacon 2401.320
PCSat 18 Apr 08:09:07 08:12:53 19° 25° (NNE) 08:16:39 145.825 MHz
JAS-2 18 Apr 08:21:55 08:27:01 47° 99° (E) 08:32:31 435.800 - 435.900 CW/SSB, 435.910 FM
Hamsat 18 Apr 08:23:35 08:27:49 53° 289° (WNW) 08:32:03 145.90 MHz
KITSAT 1 18 Apr 08:37:24 08:43:51 25° 358° (N) 08:50:17 435.175 FM
MaSat-1 18 Apr 08:41:47 08:43:51 18° 247° (WSW) 08:46:07 437.345 MHz
STRAND 1 18 Apr 08:50:06 08:52:53 15° 273° (W) 08:55:41 ?
Sapphire 18 Apr 09:07:12 09:12:00 31° 38° (NE) 09:16:47 437.095 MHz 1200 baud AX-25 AFSK
SO-67 18 Apr 09:10:49 09:14:19 64° 286° (WNW) 09:17:47 435.3500 MHz FM
AO-7 18 Apr 09:37:29 09:41:51 16° 327° (NNW) 09:46:13 29.400 - 29.500 MHz
PCSat 18 Apr 09:52:08 09:57:30 56° 49° (NE) 10:02:50 145.825 MHz
HO-68 18 Apr 09:53:32 09:59:47 31° 94° (E) 10:06:01 435.675 MHz FM
Oscar 11 18 Apr 09:57:17 09:57:53 10° 85° (E) 09:58:30 145.825 FM, Beacon 2401.500 USB
JAS-2 18 Apr 10:07:32 10:12:02 30° 297° (WNW) 10:16:47 435.800 - 435.900 CW/SSB, 435.910 FM
RS-15 18 Apr 10:08:13 10:19:12 59° 323° (NW) 10:30:00 29.354 - 29.394 USB, Beacon 29.352 USB
KITSAT 1 18 Apr 10:34:37 10:41:55 35° 27° (NNE) 10:49:11 435.175 FM
Sapphire 18 Apr 10:50:28 10:55:52 65° 240° (WSW) 11:01:12 437.095 MHz 1200 baud AX-25 AFSK
FUNcube-1 18 Apr 11:17:07 11:20:28 22° 93° (E) 11:23:51 145.950 - 145.970 MHz USB
Saudisat 1A 18 Apr 11:23:10 11:25:43 15° 111° (ESE) 11:28:17 436.775 MHz
Oscar 11 18 Apr 11:30:25 11:34:48 84° 105° (ESE) 11:39:10 145.825 FM, Beacon 2401.500 USB
PCSat 18 Apr 11:36:01 11:40:39 29° 249° (WSW) 11:45:16 145.825 MHz
HO-68 18 Apr 11:40:53 11:47:58 64° 294° (WNW) 11:55:02 435.675 MHz FM
Oscar 19 18 Apr 12:11:55 12:13:52 12° 50° (NE) 12:15:48 437.125 CW, 437.150 USB
Oscar 16 18 Apr 12:19:01 12:21:45 15° 53° (NE) 12:24:30 437.025 USB, Beacon 2401.1428
RS-15 18 Apr 12:24:17 12:34:15 37° 355° (N) 12:44:10 29.354 - 29.394 USB, Beacon 29.352 USB
KITSAT 1 18 Apr 12:30:15 12:38:26 86° 53° (NE) 12:46:32 435.175 FM
Sapphire 18 Apr 12:36:48 12:38:14 11° 259° (WSW) 12:39:40 437.095 MHz 1200 baud AX-25 AFSK
Uribyol 2 18 Apr 12:51:45 12:54:42 16° 53° (NE) 12:57:40 436.500 FM
FUNcube-1 18 Apr 12:53:06 12:57:06 42° 291° (WNW) 13:01:09 145.950 - 145.970 MHz USB
Saudisat 1A 18 Apr 13:00:15 13:04:44 86° 310° (NW) 13:09:14 436.775 MHz
Oscar 11 18 Apr 13:08:06 13:10:24 14° 303° (WNW) 13:12:43 145.825 FM, Beacon 2401.500 USB
AO-7 18 Apr 13:18:10 13:20:00 11° 23° (NNE) 13:21:50 29.400 - 29.500 MHz
AO-27 18 Apr 13:29:31 13:33:54 28° 61° (ENE) 13:38:17 436.795 MHz FM
HO-68 18 Apr 13:29:56 13:34:24 18° 316° (NW) 13:38:53 435.675 MHz FM
ITAMSAT 1 18 Apr 13:40:15 13:44:51 33° 63° (ENE) 13:49:28 435.822 SSB
Oscar 19 18 Apr 13:47:09 13:52:13 62° 70° (ENE) 13:57:21 437.125 CW, 437.150 USB
Oscar 16 18 Apr 13:55:10 14:00:17 77° 72° (ENE) 14:05:28 437.025 USB, Beacon 2401.1428
AO-Echo 18 Apr 13:58:54 14:03:40 37° 66° (ENE) 14:08:21 ?
TMSAT-1 18 Apr 14:05:41 14:08:50 16° 54° (NE) 14:11:59 436.925 FM
JAS-1B 18 Apr 14:07:35 14:11:32 16° 49° (NE) 14:15:12 435.800 - 435.900 CW/SSB
KITSAT 1 18 Apr 14:26:35 14:32:56 26° 255° (WSW) 14:39:17 435.175 FM
Uribyol 2 18 Apr 14:28:16 14:33:26 82° 73° (ENE) 14:38:38 436.500 FM
RS-15 18 Apr 14:39:11 14:49:43 49° 29° (NNE) 15:00:19 29.354 - 29.394 USB, Beacon 29.352 USB
Saudisat 1A 18 Apr 14:41:28 14:44:58 22° 331° (NNW) 14:48:28 436.775 MHz
Gurwin Techsat 1B 18 Apr 14:54:04 14:59:07 47° 67° (ENE) 15:04:12 435.225 FM
OPAL 18 Apr 15:00:39 15:03:21 14° 89° (E) 15:06:03 ?
AO-7 18 Apr 15:03:19 15:10:08 30° 48° (NE) 15:16:58 29.400 - 29.500 MHz
AO-27 18 Apr 15:08:10 15:13:12 50° 260° (W) 15:18:15 436.795 MHz FM
ITAMSAT 1 18 Apr 15:19:23 15:24:16 41° 262° (W) 15:29:11 435.822 SSB
Oscar 10/S400 18 Apr 15:20:10 16:18:54 16° 269° (W) 17:53:03 145.825 - 145.975 CW/USB, Beacon 145.810 USB
Oscar 19 18 Apr 15:28:09 15:32:01 21° 269° (W) 15:35:55 437.125 CW, 437.150 USB
Oscar 16 18 Apr 15:36:57 15:40:16 17° 272° (W) 15:43:36 437.025 USB, Beacon 2401.1428
AO-Echo 18 Apr 15:37:39 15:42:28 36° 264° (W) 15:47:11 ?
TMSAT-1 18 Apr 15:42:42 15:48:00 83° 74° (ENE) 15:53:20 436.925 FM
JAS-1B 18 Apr 15:53:26 16:01:13 63° 69° (ENE) 16:07:43 435.800 - 435.900 CW/SSB
Uosat F 18 Apr 15:54:50 15:59:38 46° 67° (ENE) 16:04:26 435.120 FM
Uribyol 2 18 Apr 16:10:28 16:13:35 16° 272° (W) 16:16:42 436.500 FM
Saudisat 1A 18 Apr 16:24:27 16:26:12 12° 355° (N) 16:27:56 436.775 MHz
Gurwin Techsat 1B 18 Apr 16:34:41 16:39:17 30° 266° (W) 16:43:55 435.225 FM
OPAL 18 Apr 16:37:44 16:42:59 86° 108° (ESE) 16:48:14 ?
RS-15 18 Apr 16:52:03 17:02:57 76° 237° (WSW) 17:14:04 29.354 - 29.394 USB, Beacon 29.352 USB
AO-7 18 Apr 16:53:49 17:02:07 85° 250° (WSW) 17:10:29 29.400 - 29.500 MHz
SO-50 18 Apr 17:04:03 17:08:30 65° 126° (SE) 17:13:00 436.795 FM
ISS 18 Apr 17:11:30 17:14:37 37° 148° (SSE) 17:17:45 145.800 FM
TMSAT-1 18 Apr 17:25:24 17:28:37 16° 273° (W) 17:31:52 436.925 FM
Uosat F 18 Apr 17:34:21 17:38:37 28° 266° (W) 17:42:55 435.120 FM
JAS-1B 18 Apr 17:45:20 17:52:10 31° 265° (W) 17:58:06 435.800 - 435.900 CW/SSB
Hamsat 18 Apr 17:46:16 17:49:38 24° 64° (ENE) 17:53:02 145.90 MHz
UOSAT-12 18 Apr 17:54:37 17:57:25 16° 111° (ESE) 18:00:15 437.025 FM, 437.400 FM
Saudisat 1A 18 Apr 18:04:49 18:07:36 16° 20° (NNE) 18:10:23 436.775 MHz
OPAL 18 Apr 18:17:43 18:21:15 19° 307° (NW) 18:24:47 ?
JAS-2 18 Apr 18:39:24 18:44:26 34° 64° (ENE) 18:49:09 435.800 - 435.900 CW/SSB, 435.910 FM
HO-68 18 Apr 18:45:29 18:47:25 11° 35° (NE) 18:49:22 435.675 MHz FM
SO-50 18 Apr 18:45:34 18:49:27 28° 327° (NNW) 18:53:23 436.795 FM
ISS 18 Apr 18:47:54 18:51:15 72° 348° (NNW) 18:54:37 145.800 FM
AO-7 18 Apr 18:50:10 18:56:08 21° 272° (W) 19:02:08 29.400 - 29.500 MHz
RS-15 18 Apr 19:05:52 19:13:25 22° 260° (W) 19:21:06 29.354 - 29.394 USB, Beacon 29.352 USB
STRAND 1 18 Apr 19:14:49 19:18:41 21° 91° (E) 19:22:31 ?
Hamsat 18 Apr 19:21:25 19:25:25 42° 262° (W) 19:29:29 145.90 MHz
UOSAT-12 18 Apr 19:32:21 19:36:57 84° 310° (NW) 19:41:40 437.025 FM, 437.400 FM
Saudisat 1A 18 Apr 19:43:56 19:48:15 48° 43° (NE) 19:52:31 436.775 MHz
SO-67 18 Apr 19:48:28 19:51:58 84° 76° (ENE) 19:55:29 435.3500 MHz FM
JAS-2 18 Apr 20:24:06 20:29:32 41° 262° (W) 20:34:34 435.800 - 435.900 CW/SSB, 435.910 FM
ISS 18 Apr 20:24:52 20:28:13 63° 8° (N) 20:31:34 145.800 FM
HO-68 18 Apr 20:26:46 20:33:13 39° 58° (ENE) 20:39:42 435.675 MHz FM
SO-50 18 Apr 20:29:19 20:31:31 13° 351° (N) 20:33:44 436.795 FM
STRAND 1 18 Apr 20:53:15 20:58:18 61° 290° (WNW) 21:03:18 ?
Oscar 11 18 Apr 20:55:39 20:58:15 16° 58° (ENE) 21:00:52 145.825 FM, Beacon 2401.500 USB
UOSAT-12 18 Apr 21:14:06 21:17:47 23° 332° (NNW) 21:21:32 437.025 FM, 437.400 FM
Saudisat 1A 18 Apr 21:23:53 21:27:42 29° 243° (WSW) 21:31:27 436.775 MHz
ISS 18 Apr 22:01:41 22:04:58 51° 207° (SSW) 22:08:15 145.800 FM
SO-50 18 Apr 22:11:17 22:13:58 15° 16° (NNE) 22:16:40 436.795 FM
HO-68 18 Apr 22:13:46 22:20:44 55° 259° (WSW) 22:27:46 435.675 MHz FM
FUNcube-1 18 Apr 22:18:04 22:21:46 31° 66° (ENE) 22:25:27 145.950 - 145.970 MHz USB
Oscar 11 18 Apr 22:29:38 22:33:57 73° 257° (WSW) 22:38:17 145.825 FM, Beacon 2401.500 USB
STRAND 1 18 Apr 22:34:46 22:36:31 12° 310° (NW) 22:38:15 ?
MaSat-1 18 Apr 22:48:40 22:51:25 56° 119° (ESE) 22:53:56 437.345 MHz
UOSAT-12 18 Apr 22:57:23 22:59:38 13° 356° (N) 23:01:53 437.025 FM, 437.400 FM
ISS 18 Apr 23:40:00 23:41:06 11° 225° (SW) 23:42:12 145.800 FM
SO-50 18 Apr 23:51:26 23:55:46 38° 39° (NE) 00:00:09 436.795 FM
FUNcube-1 18 Apr 23:54:30 23:58:12 30° 265° (W) 00:01:54 145.950 - 145.970 MHz USB
